HST 1 20580U 90037B 26167.16527473 .00005381 00000+0 16841-3 0 9990 2 20580 28.4719 87.5586 0001852 131.7056 228.3698 15.30736864788415 POLAR 1 23802U 96013A 26167.26675754 .00000137 00000+0 00000+0 0 9997 2 23802 79.8528 227.0631 6469542 209.1106 89.7802 1.29846135144846 SWAS 1 25560U 98071A 26167.68439370 .00002493 00000+0 16108-3 0 9991 2 25560 69.8949 228.8160 0008656 260.7980 99.2205 15.09624181497193 CXO 1 25867U 99040B 26169.37713324 .00000529 00000+0 00000+0 0 9998 2 25867 56.2189 116.5542 7835469 310.3049 0.1821 0.37804062 17322 XMM-NEWTON 1 25989U 99066A 26169.34668136 -.00000002 00000+0 00000+0 0 9995 2 25989 64.4794 282.9700 4673195 64.9038 0.0897 0.50127427 23010 TERRA 1 25994U 99068A 26167.89082471 .00000327 00000+0 75513-4 0 9998 2 25994 97.9457 217.4488 0001555 190.4186 284.6770 14.61102929409564 CLUSTER II-FM7 (SAMBA) 1 26410U 00041A 26168.13893488 .00013373 00000+0 00000+0 0 9990 2 26410 149.9159 50.9864 9054007 268.1291 359.6411 0.44868040 20307 CLUSTER II-FM8 (TANGO) 1 26464U 00045B 26166.18671727 .00011728 00000+0 00000+0 0 9998 2 26464 150.1502 51.7537 9056828 268.7236 2.8065 0.44400569 20306 ODIN 1 26702U 01007A 26167.64990388 .00151730 00000+0 98033-3 0 9996 2 26702 97.3825 208.5575 0006693 143.1116 217.0611 15.75626602389318 TIMED 1 26998U 01055B 26167.60674438 .00000867 00000+0 82250-4 0 9996 2 26998 74.0674 236.1872 0001093 336.2135 23.8998 14.95293752330731 CORIOLIS 1 27640U 03001A 26167.77439084 .00000073 00000+0 54658-4 0 9998 2 27640 98.7125 174.6654 0013351 210.0344 150.0068 14.19944641214160 SORCE 1 27651U 03004A 26167.74107249 .00002150 00000+0 16462-3 0 9993 2 27651 39.9906 264.2238 0016526 45.7417 314.4731 15.03711339271831 MOST 1 27843U 03031D 26167.78890478 .00000042 00000+0 39365-4 0 9999 2 27843 98.7045 175.5205 0008725 251.7368 108.2860 14.21322412190656 SCISAT 1 1 27858U 03036A 26167.75292830 .00000382 00000+0 53520-4 0 9991 2 27858 73.9284 172.2056 0008553 241.9898 118.0413 14.81447169231380 SWIFT 1 28485U 04047A 26166.40597521 .00042527 00000+0 35480-3 0 9998 2 28485 20.5516 198.6409 0001619 255.9834 104.0432 15.68175033186589 HINODE (SOLAR-B) 1 29479U 06041A 26167.77658051 .00000537 00000+0 10069-3 0 9996 2 29479 98.0548 183.9352 0016028 291.1805 68.7687 14.68622529 54816 SHIJIAN-6 02A (SJ-6 02A) 1 29505U 06046A 26167.89369750 .00004134 00000+0 21308-3 0 9994 2 29505 97.6358 208.9576 0004478 124.8985 235.2669 15.16938602 72225 SHIJIAN-6 02B (SJ-6 02B) 1 29506U 06046B 26167.87980652 .00000989 00000+0 81312-4 0 9999 2 29506 97.7155 196.9402 0015355 61.3669 298.9097 15.01376266 70692 FGRST (GLAST) 1 33053U 08029A 26167.77023670 .00002243 00000+0 76629-4 0 9991 2 33053 25.5803 207.3783 0007748 324.2186 35.7833 15.23945020995778 SDO 1 36395U 10005A 26167.50926725 -.00000097 00000+0 00000+0 0 9995 2 36395 34.6508 86.3517 0001708 44.3809 215.2958 1.00269934 60055 CRYOSAT 2 1 36508U 10013A 26167.87474762 .00000190 00000+0 46326-4 0 9998 2 36508 92.0355 277.2255 0002157 89.4964 270.6490 14.51899063858031 X-SAT 1 37389U 11015C 26167.87449898 -.00000064 00000+0 -98995-5 0 9993 2 37389 98.3505 144.9127 0013931 349.5011 10.5876 14.25205739787636 GCOM-W1 (SHIZUKU) 1 38337U 12025A 26167.75786411 .00000377 00000+0 93602-4 0 9995 2 38337 98.2021 108.3199 0001785 75.2604 344.6172 14.57124312748976 NUSTAR 1 38358U 12031A 26167.91668980 .00007228 00000+0 39293-3 0 9990 2 38358 6.0274 36.1555 0007033 107.6444 307.5344 15.08797824 1303 NEOSSAT 1 39089U 13009D 26167.79139584 .00000108 00000+0 52216-4 0 9998 2 39089 98.4177 347.8334 0009886 245.1134 114.9025 14.35826267696681 BRITE-AUSTRIA 1 39091U 13009F 26167.44196029 .00000141 00000+0 62460-4 0 9999 2 39091 98.3994 346.8961 0009125 239.0066 121.0225 14.36541877696949 IRIS 1 39197U 13033A 26167.82817655 .00000814 00000+0 99442-4 0 9997 2 39197 97.9329 7.1064 0023570 323.0758 36.8833 14.85884720700323 HISAKI (SPRINT-A) 1 39253U 13049A 26167.83421073 .00000116 00000+0 71628-4 0 9994 2 39253 29.7184 221.8078 0136865 13.9892 346.4420 13.55544715631377 CASSIOPE 1 39265U 13055A 26167.83402135 .00042418 -54295-6 46322-3 0 9998 2 39265 80.9148 67.1512 0292810 63.6252 299.4722 15.25158837667611 STSAT-3 1 39422U 13066G 26167.84643773 .00002834 00000+0 21624-3 0 9994 2 39422 97.6221 137.7401 0011152 46.0855 314.1289 15.02755522684156 SWARM B 1 39451U 13067A 26167.80651044 .00002858 00000+0 10170-3 0 9993 2 39451 87.7437 342.4321 0003281 85.8654 274.2970 15.28549486683188 SWARM A 1 39452U 13067B 26167.83253328 .00009054 00000+0 15561-3 0 9994 2 39452 87.3323 56.3738 0003011 95.1870 264.9735 15.50948705706191 SWARM C 1 39453U 13067C 26167.83241973 .00008947 00000+0 15377-3 0 9993 2 39453 87.3323 54.9548 0002993 95.3592 264.8011 15.50947109706155 BRITE-CA1 (TORONTO) 1 40020U 14033L 26167.35833890 .00000605 00000+0 98796-4 0 9991 2 40020 97.9738 296.3015 0077228 279.7207 79.5284 14.72675728642092 OCO 2 1 40059U 14035A 26167.81213400 .00000322 00000+0 81480-4 0 9993 2 40059 98.2017 109.1108 0001501 85.2948 274.8422 14.57110969635994 BRITE-PL2 (HEWELIUSZ) 1 40119U 14049B 26167.30201463 .00001445 00000+0 13881-3 0 9991 2 40119 97.9097 279.2951 0015251 111.1081 249.1771 14.94590679641310 MMS 1 1 40482U 15011A 26167.91668980 -.00000758 00000+0 00000+0 0 9994 2 40482 72.1725 348.7665 8321853 167.4231 270.8776 0.28343876 1387 MMS 2 1 40483U 15011B 26167.91668980 -.00000758 00000+0 00000+0 0 9995 2 40483 72.1726 348.7687 8322637 167.4287 270.8663 0.28343907 1385 MMS 3 1 40484U 15011C 26167.91668980 -.00000758 00000+0 00000+0 0 9996 2 40484 72.1723 348.7690 8321510 167.4297 270.8580 0.28341705 1389 MMS 4 1 40485U 15011D 26167.91668980 -.00000758 00000+0 00000+0 0 9997 2 40485 72.1723 348.7690 8321510 167.4297 270.8580 0.28341705 1380 ASTROSAT 1 40930U 15052A 26167.82239102 .00001427 00000+0 91961-4 0 9991 2 40930 5.9955 157.9756 0007819 26.1222 333.9300 14.82506973579772 DAMPE 1 41173U 15078A 26167.84156853 .00000932 00000+0 33865-4 0 9991 2 41173 97.4550 173.3065 0013819 78.3154 281.9637 15.30784311584492 PISAT 1 41784U 16059B 26167.87154970 .00000696 00000+0 12619-3 0 9990 2 41784 97.8179 168.3379 0028357 203.7910 156.1987 14.68983006519693 HXMT (HUIYAN) 1 42758U 17034A 26167.73967950 .00002236 00000+0 11695-3 0 9996 2 42758 43.0125 185.5330 0030528 144.2185 216.0717 15.18475330497596 FLYING LAPTOP 1 42831U 17042G 26167.85223575 .00003612 00000+0 28529-3 0 9991 2 42831 97.4683 323.3978 0019517 122.5784 237.7328 15.01145830486406 ZHANGHENG 1-01 (CSES-1) 1 43194U 18015C 26167.87580553 .00005926 00000+0 27106-3 0 9999 2 43194 97.6869 333.5266 0017054 267.6038 92.3244 15.20807755464597 SALSAT 1 46495U 20068K 26167.75305926 .00006424 00000+0 22536-3 0 9999 2 46495 97.8846 170.7912 0008036 309.8779 50.1753 15.29794360315296 IXPE 1 49954U 21121A 26167.83335647 .00009815 00000+0 52709-3 0 9997 2 49954 0.2312 320.2375 0007177 75.7477 109.6334 15.10247743 5513 SMILE 1 69123U 26109A 26158.38327019 -.00000041 00000+0 -36778-3 0 9994 2 69123 69.9787 209.3069 3310191 288.5544 45.7342 7.54049028 2480